STARLINK-34361

Last updated on Thu Jul 03 2025 00:02:07 GMT+0000 (Coordinated Universal Time)

1 64450U 25130N 25183.58335648 -.01198694 00000+0 -88845-2 0 9995 2 64450 53.1559 179.7618 0000947 69.8368 56.2269 15.75065327 3462
UTC large
Height (km)
Speed (km/s)
/
Latitude / Longitude
Inclination (degrees)
Orbital Period (minutes)
Azimuth
Elevation
Range (km)
Doppler Factor

Next 0 passes for location: London (51.5072 / 0.1276)

Sorry there are no passes over London.